Home   Weather   Malī Sar   Past weeks
Flag for Iran

Past Weather in Malī Sar, Iran — Yesterday and Last 2 Weeks

Now
95 °F

Haze.


Feels Like: 120 °F
Forecast: 101 / 84 °F
Wind: 5 mph from Southeast

Location: Bandarabbass

Current Time: Jun 27, 2019 at 10:51:49 am

Latest Report: Jun 27, 2019 at 10:00 am


Visibility: 2 mi

Pressure: 29.53 "Hg

Humidity: 67%

Dew Point: 82 °F

Location of Malī SarLocation

Past Weather in Malī Sar — Graph

°F

Malī Sar Temperature Yesterday

Maximum temperature yesterday: 97 °F (at 1:30 pm)
Minimum temperature yesterday: 88 °F (at 2:00 am)
Average temperature yesterday: 93 °F

High & Low Weather Summary for the Past Weeks

 TemperatureHumidityPressure
High113 °F (Jun 12, 11:30 am)100% (Jun 18, 6:30 am)29.62 "Hg (Jun 18, 6:30 am)
Low79 °F (Jun 16, 6:30 am)10% (Jun 12, 10:00 am)29.36 "Hg (Jun 19, 4:30 am)
Average95 °F60%29.48 "Hg
* Reported Jun 12 9:30 am — Jun 27 9:30 am, Malī Sar. Weather by CustomWeather, © 2019

Note: Actual official high and low records may vary slightly from our data, if they occured in-between our weather recording intervals... More about our weather records

Advertising

Malī Sar Weather History for the Previous 24 Hours

Scroll right to see more
 ConditionsComfort  
Time TempWeatherWind HumidityBarometerVisibility
9:30 am
Thu, Jun 27
95 °FHaze.5 mph71%29.53 "Hg2 mi
9:00 am93 °FHaze.7 mph71%29.53 "Hg2 mi
8:30 am91 °FHaze.7 mph80%29.53 "Hg2 mi
8:00 am90 °FFog.5 mph84%29.53 "Hg2 mi
7:30 am88 °FFog.7 mph84%29.53 "Hg2 mi
7:00 am88 °FFog.7 mph84%29.50 "Hg2 mi
6:30 am88 °FFog.5 mph84%29.50 "Hg2 mi
5:30 am88 °FFog.5 mph89%29.50 "Hg2 mi
4:30 am88 °FFog.7 mph89%29.50 "Hg2 mi
3:30 am90 °FFog.7 mph84%29.50 "Hg2 mi
2:30 am90 °FFog.7 mph84%29.50 "Hg2 mi
2:00 am90 °FFog.7 mph84%29.50 "Hg2 mi
1:30 am90 °FFog.7 mph84%29.50 "Hg2 mi
1:00 am90 °FFog.5 mph84%29.50 "Hg3 mi
12:30 am90 °FFog.5 mph84%29.50 "Hg3 mi
12:00 am91 °FFog.7 mph80%29.50 "Hg3 mi
11:30 pm
Wed, Jun 26
91 °FFog.7 mph80%29.50 "Hg3 mi
11:00 pm93 °FHaze.7 mph71%29.50 "Hg3 mi
10:30 pm93 °FHaze.7 mph71%29.50 "Hg3 mi
10:00 pm93 °FHaze.5 mph71%29.50 "Hg3 mi
9:30 pm93 °FHaze.2 mph67%29.50 "Hg3 mi
9:00 pm93 °FHaze.5 mph67%29.50 "Hg3 mi
8:30 pm93 °FHaze.5 mph67%29.50 "Hg3 mi
8:00 pm93 °FHaze.5 mph71%29.50 "Hg3 mi
7:30 pm93 °FHaze.5 mph71%29.50 "Hg3 mi
7:00 pm95 °FHaze.7 mph67%29.50 "Hg3 mi
6:30 pm95 °FHaze.5 mph67%29.50 "Hg3 mi
6:00 pm97 °FHaze.5 mph63%29.50 "Hg3 mi
5:30 pm97 °FHaze.9 mph63%29.50 "Hg3 mi
5:00 pm97 °FHaze.9 mph63%29.50 "Hg3 mi
4:30 pm97 °FHaze.9 mph63%29.50 "Hg3 mi
4:00 pm97 °FHaze.7 mph63%29.53 "Hg3 mi
3:30 pm97 °FHaze.14 mph67%29.56 "Hg3 mi
3:00 pm97 °FHaze.9 mph67%29.56 "Hg3 mi
2:30 pm97 °FHaze.12 mph63%29.56 "Hg3 mi
2:00 pm97 °FHaze.12 mph60%29.59 "Hg3 mi
1:30 pm97 °FHaze.12 mph60%29.59 "Hg3 mi
1:00 pm95 °FHaze.9 mph63%29.62 "Hg3 mi
12:30 pm95 °FHaze.9 mph63%29.62 "Hg3 mi
12:00 pm93 °FScattered clouds.12 mph71%29.62 "Hg3 mi
11:30 am93 °FScattered clouds.12 mph71%29.62 "Hg3 mi
11:00 am93 °FScattered clouds.9 mph71%29.62 "Hg3 mi
10:30 am93 °FScattered clouds.9 mph71%29.62 "Hg3 mi
10:00 am93 °FScattered clouds.9 mph67%29.62 "Hg3 mi
Weather by CustomWeather, © 2019

See weather overview